STARLINK-5849 (55924 NORAD) Tracking and Keplerian Element Data

This shows tracking and keplerian element data for the satellite.

Feedback or suggestion? Click here.




ElementValue
Catalog55924
NameSTARLINK-5849
Epoch Orbit839
Epoch Day126.86868712
Epoch Year2023
RAAN40.2144
Inclination70.0006
Eccentricity0.0003908
Argument of Perigee264.1188
Mean Anonmoly95.9562
Mean Motion15.69938573
Decay Rate3.601E-05
L11 55924U 23037L 23126.86868712 .00003601 00000+0 31681-4 0 9992
L22 55924 70.0006 40.2144 0003908 264.1188 95.9562 15.69938573 8397



Live tracking and technical data element details for STARLINK-5849 (NORAD 55924). STARLINK-5849 can be tracked NOW for your location showing map with azimuth and elevation plus other details from your city location.







IsCatalogInMostPopularTable: catalog: 55924, numindb: 8
Update: records affected: 1



GetName: 55924 STARLINK-5849

Hit Count: updated at: Tue, 06 Jun 2023 03:02:52 GMT